Time,TemperatureF,DewpointF,PressureIn,WindDirection,WindDirectionDegrees,WindSpeedMPH,WindSpeedGustMPH,Humidity,HourlyPrecipIn,Conditions,Clouds,dailyrainin,SolarRadiationWatts/m^2,SoftwareType,DateUTC
2013-01-04 00:02:00,2.5,-0.7,29.85,WNW,290,0.0,0.0,86,0.00,CLR,,0.00,0.0,WeatherDisplay:10.37,2013-01-04 05:02:00,
2013-01-04 00:07:00,2.5,-0.7,29.84,WNW,290,0.0,0.0,86,0.00,CLR,,0.00,0.0,WeatherDisplay:10.37,2013-01-04 05:07:00,
2013-01-04 00:12:00,2.4,-0.8,29.84,WNW,290,0.0,0.0,86,0.00,CLR,,0.00,0.0,WeatherDisplay:10.37,2013-01-04 05:12:00,
2013-01-04 00:17:00,2.4,-0.8,29.84,WNW,290,0.0,0.0,86,0.00,CLR,,0.00,0.0,WeatherDisplay:10.37,2013-01-04 05:17:00,
2013-01-04 00:22:00,2.4,-0.8,29.83,WNW,290,0.0,0.0,86,0.00,CLR,,0.00,0.0,WeatherDisplay:10.37,2013-01-04 05:22:00,
2013-01-04 00:27:00,2.4,-0.8,29.83,WNW,290,0.0,0.0,86,0.00,CLR,,0.00,0.0,WeatherDisplay:10.37,2013-01-04 05:27:00,
2013-01-04 00:32:00,2.3,-0.9,29.83,WNW,290,0.0,0.0,86,0.00,CLR,,0.00,0.0,WeatherDisplay:10.37,2013-01-04 05:32:00,
2013-01-04 00:37:00,2.2,-1.0,29.83,WNW,290,0.0,0.0,86,0.00,CLR,,0.00,0.0,WeatherDisplay:10.37,2013-01-04 05:37:00,
2013-01-04 00:43:00,2.2,-1.0,29.83,WNW,290,0.0,0.0,86,0.00,CLR,,0.00,0.0,WeatherDisplay:10.37,2013-01-04 05:43:00,
2013-01-04 00:48:00,2.1,-1.1,29.83,WNW,290,0.0,0.0,86,0.00,CLR,,0.00,0.0,WeatherDisplay:10.37,2013-01-04 05:48:00,
2013-01-04 00:53:00,2.0,-1.2,29.82,WNW,290,0.0,0.0,86,0.00,CLR,,0.00,0.0,WeatherDisplay:10.37,2013-01-04 05:53:00,
2013-01-04 00:58:00,2.0,-1.2,29.82,WNW,290,0.0,0.0,86,0.00,CLR,,0.00,0.0,WeatherDisplay:10.37,2013-01-04 05:58:00,
2013-01-04 01:03:00,1.9,-1.3,29.82,WNW,290,0.0,0.0,86,0.00,CLR,,0.00,0.0,WeatherDisplay:10.37,2013-01-04 06:03:00,
2013-01-04 01:08:00,1.9,-1.3,29.81,WNW,290,0.0,0.0,86,0.00,CLR,,0.00,0.0,WeatherDisplay:10.37,2013-01-04 06:08:00,
2013-01-04 01:13:00,1.8,-1.4,29.81,WNW,290,0.0,0.0,86,0.00,CLR,,0.00,0.0,WeatherDisplay:10.37,2013-01-04 06:13:00,
2013-01-04 01:18:00,1.8,-1.4,29.81,WNW,290,0.0,0.0,86,0.00,CLR,,0.00,0.0,WeatherDisplay:10.37,2013-01-04 06:18:00,
2013-01-04 01:23:00,1.7,-1.5,29.81,WNW,290,0.0,0.0,86,0.00,CLR,,0.00,0.0,WeatherDisplay:10.37,2013-01-04 06:23:00,
2013-01-04 01:28:00,1.6,-1.6,29.81,WNW,290,1.1,0.0,86,0.00,CLR,,0.00,0.0,WeatherDisplay:10.37,2013-01-04 06:28:00,
2013-01-04 01:33:00,1.5,-1.7,29.81,WNW,290,0.0,0.0,86,0.00,CLR,,0.00,0.0,WeatherDisplay:10.37,2013-01-04 06:33:00,
2013-01-04 01:38:00,1.5,-1.7,29.81,WNW,290,1.1,1.1,86,0.00,CLR,,0.00,0.0,WeatherDisplay:10.37,2013-01-04 06:38:00,
2013-01-04 01:43:00,1.4,-1.8,29.81,WNW,290,0.0,0.0,86,0.00,CLR,,0.00,0.0,WeatherDisplay:10.37,2013-01-04 06:43:00,
2013-01-04 01:48:00,1.4,-1.8,29.81,WNW,290,0.0,0.0,86,0.00,CLR,,0.00,0.0,WeatherDisplay:10.37,2013-01-04 06:48:00,
2013-01-04 01:53:00,1.4,-1.8,29.82,WNW,290,0.0,0.0,86,0.00,CLR,,0.00,0.0,WeatherDisplay:10.37,2013-01-04 06:53:00,
2013-01-04 01:58:00,1.3,-1.9,29.82,WNW,290,0.0,0.0,86,0.00,CLR,,0.00,0.0,WeatherDisplay:10.37,2013-01-04 06:58:00,
2013-01-04 02:03:00,1.3,-1.9,29.82,WNW,290,1.1,1.1,86,0.00,CLR,,0.00,0.0,WeatherDisplay:10.37,2013-01-04 07:03:00,
2013-01-04 02:08:00,1.2,-2.0,29.82,WNW,290,2.3,2.3,86,0.00,CLR,,0.00,0.0,WeatherDisplay:10.37,2013-01-04 07:08:00,
2013-01-04 02:13:00,1.3,-1.9,29.82,WNW,290,1.1,1.1,86,0.00,CLR,,0.00,0.0,WeatherDisplay:10.37,2013-01-04 07:13:00,
2013-01-04 02:18:00,1.4,-1.6,29.82,WNW,290,1.1,1.1,87,0.00,CLR,,0.00,0.0,WeatherDisplay:10.37,2013-01-04 07:18:00,
2013-01-04 02:23:00,1.4,-1.6,29.81,WNW,290,1.1,1.1,87,0.00,CLR,,0.00,0.0,WeatherDisplay:10.37,2013-01-04 07:23:00,
2013-01-04 02:28:00,1.4,-1.6,29.81,WNW,290,1.1,0.0,87,0.00,CLR,,0.00,0.0,WeatherDisplay:10.37,2013-01-04 07:28:00,
2013-01-04 02:33:00,1.4,-1.6,29.81,WNW,290,2.3,2.3,87,0.00,CLR,,0.00,0.0,WeatherDisplay:10.37,2013-01-04 07:33:00,
2013-01-04 02:38:00,1.5,-1.5,29.80,WNW,290,1.1,0.0,87,0.00,CLR,,0.00,0.0,WeatherDisplay:10.37,2013-01-04 07:38:00,
2013-01-04 02:43:00,1.6,-1.4,29.80,WNW,290,0.0,0.0,87,0.00,CLR,,0.00,0.0,WeatherDisplay:10.37,2013-01-04 07:43:00,
2013-01-04 02:48:00,1.6,-1.4,29.80,WNW,290,0.0,0.0,87,0.00,CLR,,0.00,0.0,WeatherDisplay:10.37,2013-01-04 07:48:00,
2013-01-04 02:53:00,1.5,-1.5,29.80,WNW,290,0.0,0.0,87,0.00,CLR,,0.00,0.0,WeatherDisplay:10.37,2013-01-04 07:53:00,
2013-01-04 02:58:00,1.5,-1.5,29.80,WNW,290,0.0,0.0,87,0.00,CLR,,0.00,0.0,WeatherDisplay:10.37,2013-01-04 07:58:00,
2013-01-04 03:03:00,1.4,-1.6,29.80,WNW,290,1.1,1.1,87,0.00,CLR,,0.00,0.0,WeatherDisplay:10.37,2013-01-04 08:03:00,
2013-01-04 03:08:00,1.4,-1.6,29.80,WNW,290,1.1,1.1,87,0.00,CLR,,0.00,0.0,WeatherDisplay:10.37,2013-01-04 08:08:00,
2013-01-04 03:13:00,1.4,-1.6,29.80,WNW,290,1.1,1.1,87,0.00,CLR,,0.00,0.0,WeatherDisplay:10.37,2013-01-04 08:13:00,
2013-01-04 03:18:00,1.7,-1.3,29.80,WNW,290,1.1,0.0,87,0.00,CLR,,0.00,0.0,WeatherDisplay:10.37,2013-01-04 08:18:00,
2013-01-04 03:23:00,1.9,-1.1,29.78,WNW,290,2.3,2.3,87,0.00,CLR,,0.00,0.0,WeatherDisplay:10.37,2013-01-04 08:23:00,
2013-01-04 03:28:00,2.4,-0.6,29.78,WNW,290,1.1,1.1,87,0.00,CLR,,0.00,0.0,WeatherDisplay:10.37,2013-01-04 08:28:00,
2013-01-04 03:33:00,2.8,0.1,29.78,WNW,290,1.1,1.1,88,0.00,CLR,,0.00,0.0,WeatherDisplay:10.37,2013-01-04 08:33:00,
2013-01-04 03:38:00,3.0,0.3,29.79,WNW,290,1.0,0.0,88,0.00,CLR,,0.00,0.0,WeatherDisplay:10.37,2013-01-04 08:38:00,
2013-01-04 03:43:00,3.5,0.7,29.79,WNW,290,0.0,0.0,88,0.00,CLR,,0.00,0.0,WeatherDisplay:10.37,2013-01-04 08:43:00,
2013-01-04 03:48:00,4.0,1.2,29.79,WNW,290,2.0,2.0,88,0.00,CLR,,0.00,0.0,WeatherDisplay:10.37,2013-01-04 08:48:00,
2013-01-04 03:53:00,5.3,5.3,29.78,WNW,290,3.5,3.5,100,0.00,CLR,,0.00,0.0,WeatherDisplay:10.37,2013-01-04 08:53:00,
2013-01-04 03:58:00,6.6,4.0,29.78,WNW,290,3.5,3.5,89,0.00,CLR,,0.00,0.0,WeatherDisplay:10.37,2013-01-04 08:58:00,
2013-01-04 04:03:00,7.3,4.7,29.78,WNW,290,2.3,2.3,89,0.00,CLR,,0.00,0.0,WeatherDisplay:10.37,2013-01-04 09:03:00,
2013-01-04 04:08:00,7.8,5.5,29.78,WNW,290,4.0,4.0,90,0.00,CLR,,0.00,0.0,WeatherDisplay:10.37,2013-01-04 09:08:00,
2013-01-04 04:13:00,8.2,5.9,29.78,WNW,290,2.3,2.3,90,0.00,CLR,,0.00,0.0,WeatherDisplay:10.37,2013-01-04 09:13:00,
2013-01-04 04:18:00,8.5,6.2,29.78,WNW,290,0.0,0.0,90,0.00,CLR,,0.00,0.0,WeatherDisplay:10.37,2013-01-04 09:18:00,
2013-01-04 04:23:00,8.7,6.1,29.78,WNW,290,0.0,0.0,89,0.00,CLR,,0.00,0.0,WeatherDisplay:10.37,2013-01-04 09:23:00,
2013-01-04 04:28:00,8.7,6.1,29.78,WNW,290,0.0,0.0,89,0.00,CLR,,0.00,0.0,WeatherDisplay:10.37,2013-01-04 09:28:00,
2013-01-04 04:33:00,8.7,6.1,29.78,WNW,290,1.1,1.1,89,0.00,CLR,,0.00,0.0,WeatherDisplay:10.37,2013-01-04 09:33:00,
2013-01-04 04:38:00,8.8,6.2,29.77,WNW,290,1.1,1.1,89,0.00,CLR,,0.00,0.0,WeatherDisplay:10.37,2013-01-04 09:38:00,
2013-01-04 04:43:00,9.2,6.6,29.77,WNW,290,2.3,2.3,89,0.00,CLR,,0.00,0.0,WeatherDisplay:10.37,2013-01-04 09:43:00,
2013-01-04 04:48:00,10.8,8.4,29.77,NW,319,4.6,4.6,90,0.00,CLR,,0.00,0.0,WeatherDisplay:10.37,2013-01-04 09:48:00,
2013-01-04 04:53:00,12.5,10.4,29.77,NNW,328,2.3,2.3,91,0.00,CLR,,0.00,0.0,WeatherDisplay:10.37,2013-01-04 09:53:00,
2013-01-04 04:58:00,14.0,11.9,29.77,West,279,2.3,2.3,91,0.00,CLR,,0.00,0.0,WeatherDisplay:10.37,2013-01-04 09:58:00,
2013-01-04 05:03:00,14.5,12.4,29.77,West,279,2.3,2.3,91,0.00,CLR,,0.00,0.0,WeatherDisplay:10.37,2013-01-04 10:03:00,
2013-01-04 05:08:00,14.9,12.7,29.77,WNW,287,2.3,2.3,91,0.00,CLR,,0.00,0.0,WeatherDisplay:10.37,2013-01-04 10:08:00,
2013-01-04 05:13:00,15.3,13.1,29.77,WNW,287,2.3,2.3,91,0.00,CLR,,0.00,0.0,WeatherDisplay:10.37,2013-01-04 10:13:00,
2013-01-04 05:18:00,15.5,13.3,29.77,WNW,287,0.0,0.0,91,0.00,CLR,,0.00,0.0,WeatherDisplay:10.37,2013-01-04 10:18:00,
2013-01-04 05:23:00,15.7,13.5,29.77,WNW,287,1.0,1.0,91,0.00,CLR,,0.00,0.0,WeatherDisplay:10.37,2013-01-04 10:23:00,
2013-01-04 05:28:00,16.2,14.0,29.77,WNW,287,5.0,5.0,91,0.00,CLR,,0.00,0.0,WeatherDisplay:10.37,2013-01-04 10:28:00,
2013-01-04 05:33:00,15.5,13.1,29.77,NW,309,4.0,4.0,90,0.00,CLR,,0.00,0.0,WeatherDisplay:10.37,2013-01-04 10:33:00,
2013-01-04 05:38:00,14.9,12.5,29.77,NW,309,4.0,4.0,90,0.00,CLR,,0.00,0.0,WeatherDisplay:10.37,2013-01-04 10:38:00,
2013-01-04 05:43:00,14.8,12.4,29.77,NW,307,8.1,8.1,90,0.00,CLR,,0.00,0.0,WeatherDisplay:10.37,2013-01-04 10:43:00,
2013-01-04 05:48:00,14.4,11.8,29.77,NW,313,3.5,3.5,89,0.00,CLR,,0.00,0.0,WeatherDisplay:10.37,2013-01-04 10:48:00,
2013-01-04 05:53:00,14.3,11.7,29.77,NW,313,8.1,8.1,89,0.00,CLR,,0.00,0.0,WeatherDisplay:10.37,2013-01-04 10:53:00,
2013-01-04 05:58:00,14.3,11.7,29.77,NW,318,4.6,4.6,89,0.00,CLR,,0.00,0.0,WeatherDisplay:10.37,2013-01-04 10:58:00,
2013-01-04 06:03:00,14.4,11.8,29.77,WNW,292,9.2,9.2,89,0.00,CLR,,0.00,0.0,WeatherDisplay:10.37,2013-01-04 11:03:00,
2013-01-04 06:08:00,14.4,11.8,29.78,NW,309,3.5,3.5,89,0.00,CLR,,0.00,0.0,WeatherDisplay:10.37,2013-01-04 11:08:00,
2013-01-04 06:13:00,14.4,11.5,29.78,NW,309,3.5,3.5,88,0.00,CLR,,0.00,0.0,WeatherDisplay:10.37,2013-01-04 11:13:00,
2013-01-04 06:18:00,14.5,11.6,29.78,NW,309,0.0,0.0,88,0.00,CLR,,0.00,0.0,WeatherDisplay:10.37,2013-01-04 11:18:00,
2013-01-04 06:23:00,14.6,11.7,29.78,NW,309,3.5,3.5,88,0.00,CLR,,0.00,0.0,WeatherDisplay:10.37,2013-01-04 11:23:00,
2013-01-04 06:28:00,14.9,12.2,29.78,NW,309,2.3,2.3,89,0.00,CLR,,0.00,0.0,WeatherDisplay:10.37,2013-01-04 11:28:00,
2013-01-04 06:33:00,15.0,12.3,29.78,East,90,2.0,2.0,89,0.00,CLR,,0.00,0.0,WeatherDisplay:10.37,2013-01-04 11:33:00,
2013-01-04 06:38:00,15.7,13.0,29.78,NW,312,2.3,2.3,89,0.00,CLR,,0.00,0.0,WeatherDisplay:10.37,2013-01-04 11:38:00,
2013-01-04 06:43:00,16.2,13.8,29.78,WNW,294,3.5,3.5,90,0.00,CLR,,0.00,0.0,WeatherDisplay:10.37,2013-01-04 11:43:00,
2013-01-04 06:48:00,16.9,14.5,29.78,WNW,294,1.1,1.1,90,0.00,CLR,,0.00,0.0,WeatherDisplay:10.37,2013-01-04 11:48:00,
2013-01-04 06:53:00,17.4,15.2,29.78,WNW,294,2.0,2.0,91,0.00,CLR,,0.00,0.0,WeatherDisplay:10.37,2013-01-04 11:53:00,
2013-01-04 06:58:00,18.2,16.0,29.78,WNW,294,3.5,3.5,91,0.00,CLR,,0.00,0.0,WeatherDisplay:10.37,2013-01-04 11:58:00,
2013-01-04 07:03:00,18.8,16.6,29.78,WNW,294,1.1,1.1,91,0.00,CLR,,0.00,0.0,WeatherDisplay:10.37,2013-01-04 12:03:00,
2013-01-04 07:08:00,19.1,16.9,29.78,WNW,294,0.0,0.0,91,0.00,CLR,,0.00,0.0,WeatherDisplay:10.37,2013-01-04 12:08:00,
2013-01-04 07:13:00,19.6,17.4,29.78,WNW,294,2.3,2.3,91,0.00,CLR,,0.00,0.0,WeatherDisplay:10.37,2013-01-04 12:13:00,
2013-01-04 07:18:00,19.7,17.5,29.78,WNW,294,2.3,2.3,91,0.00,CLR,,0.00,5.0,WeatherDisplay:10.37,2013-01-04 12:18:00,
2013-01-04 07:24:00,20.2,18.2,29.77,WNW,294,2.0,2.0,92,0.00,SCT,,0.00,5.0,WeatherDisplay:10.37,2013-01-04 12:24:00,
2013-01-04 07:29:00,20.6,18.4,29.77,WNW,294,1.1,1.1,91,0.00,BKN,,0.00,9.0,WeatherDisplay:10.37,2013-01-04 12:29:00,
2013-01-04 07:34:00,20.8,18.6,29.77,WNW,294,0.0,0.0,91,0.00,BKN,,0.00,11.0,WeatherDisplay:10.37,2013-01-04 12:34:00,
2013-01-04 07:39:00,20.9,18.4,29.77,WNW,294,0.0,0.0,90,0.00,BKN,,0.00,11.0,WeatherDisplay:10.37,2013-01-04 12:39:00,
2013-01-04 07:44:00,21.0,18.5,29.77,WNW,294,1.1,1.1,90,0.00,BKN,,0.00,11.0,WeatherDisplay:10.37,2013-01-04 12:44:00,
2013-01-04 07:49:00,21.0,18.5,29.77,WNW,294,0.0,0.0,90,0.00,BKN,,0.00,12.0,WeatherDisplay:10.37,2013-01-04 12:49:00,
2013-01-04 07:54:00,21.0,18.3,29.76,WNW,294,1.1,1.1,89,0.00,BKN,,0.00,16.0,WeatherDisplay:10.37,2013-01-04 12:54:00,
2013-01-04 07:59:00,20.9,18.2,29.76,WNW,294,1.1,1.1,89,0.00,BKN,,0.00,28.0,WeatherDisplay:10.37,2013-01-04 12:59:00,
2013-01-04 08:04:00,20.7,17.7,29.76,WNW,294,2.3,2.3,88,0.00,BKN,,0.00,32.0,WeatherDisplay:10.37,2013-01-04 13:04:00,
2013-01-04 08:09:00,20.5,17.5,29.75,WNW,294,1.1,0.0,88,0.00,SCT,,0.00,46.0,WeatherDisplay:10.37,2013-01-04 13:09:00,
2013-01-04 08:14:00,20.4,17.1,29.75,WNW,294,0.0,0.0,87,0.00,SCT,,0.00,56.0,WeatherDisplay:10.37,2013-01-04 13:14:00,
2013-01-04 08:19:00,20.4,17.1,29.75,WNW,294,0.0,0.0,87,0.00,SCT,,0.00,62.0,WeatherDisplay:10.37,2013-01-04 13:19:00,
2013-01-04 08:24:00,20.6,17.6,29.75,WNW,294,2.3,2.3,88,0.00,CLR,,0.00,100.0,WeatherDisplay:10.37,2013-01-04 13:24:00,
2013-01-04 08:29:00,20.6,17.3,29.75,WNW,294,2.3,2.3,87,0.00,CLR,,0.00,107.0,WeatherDisplay:10.37,2013-01-04 13:29:00,
2013-01-04 08:34:00,20.3,17.0,29.75,WNW,294,3.5,3.5,87,0.00,FEW,,0.00,109.0,WeatherDisplay:10.37,2013-01-04 13:34:00,
2013-01-04 08:39:00,20.4,17.1,29.75,WNW,294,0.0,0.0,87,0.00,FEW,,0.00,107.0,WeatherDisplay:10.37,2013-01-04 13:39:00,
2013-01-04 08:44:00,20.8,17.5,29.75,WNW,294,1.1,1.1,87,0.00,SCT,,0.00,90.0,WeatherDisplay:10.37,2013-01-04 13:44:00,
2013-01-04 08:49:00,21.5,18.2,29.75,WNW,294,2.3,2.3,87,0.00,SCT,,0.00,86.0,WeatherDisplay:10.37,2013-01-04 13:49:00,
2013-01-04 08:54:00,22.4,19.1,29.74,NNE,28,2.3,2.3,87,0.00,SCT,,0.00,90.0,WeatherDisplay:10.37,2013-01-04 13:54:00,
2013-01-04 08:59:00,23.7,20.4,29.74,ENE,74,2.3,2.3,87,0.00,SCT,,0.00,102.0,WeatherDisplay:10.37,2013-01-04 13:59:00,
2013-01-04 09:04:00,25.1,21.5,29.74,WSW,247,2.0,2.0,86,0.00,SCT,,0.00,111.0,WeatherDisplay:10.37,2013-01-04 14:04:00,
2013-01-04 09:09:00,26.1,21.9,29.74,SW,226,1.1,1.1,84,0.00,SCT,,0.00,120.0,WeatherDisplay:10.37,2013-01-04 14:09:00,
2013-01-04 09:14:00,26.5,22.0,29.74,SE,146,6.9,6.9,83,0.00,SCT,,0.00,132.0,WeatherDisplay:10.37,2013-01-04 14:14:00,
2013-01-04 09:19:00,26.9,22.1,29.74,West,275,5.8,5.8,82,0.00,SCT,,0.00,130.0,WeatherDisplay:10.37,2013-01-04 14:19:00,
2013-01-04 09:24:00,27.1,22.0,29.75,SSW,200,2.3,2.3,81,0.00,SCT,,0.00,132.0,WeatherDisplay:10.37,2013-01-04 14:24:00,
2013-01-04 09:29:00,27.1,22.0,29.75,South,172,2.3,2.3,81,0.00,BKN,,0.00,114.0,WeatherDisplay:10.37,2013-01-04 14:29:00,
2013-01-04 09:34:00,27.0,21.9,29.75,SSE,164,2.3,2.3,81,0.00,BKN,,0.00,102.0,WeatherDisplay:10.37,2013-01-04 14:34:00,
2013-01-04 09:39:00,26.9,21.8,29.75,SSE,164,0.0,0.0,81,0.00,BKN,,0.00,105.0,WeatherDisplay:10.37,2013-01-04 14:39:00,
2013-01-04 09:44:00,26.9,21.8,29.75,SSE,164,2.3,0.0,81,0.00,BKN,,0.00,98.0,WeatherDisplay:10.37,2013-01-04 14:44:00,
2013-01-04 09:49:00,27.5,21.8,29.75,East,92,2.3,2.3,79,0.00,SCT,,0.00,181.0,WeatherDisplay:10.37,2013-01-04 14:49:00,
2013-01-04 09:54:00,27.8,21.8,29.73,East,98,1.1,1.1,78,0.00,BKN,,0.00,116.0,WeatherDisplay:10.37,2013-01-04 14:54:00,
2013-01-04 09:59:00,28.0,22.0,29.73,East,98,1.1,1.1,78,0.00,BKN,,0.00,111.0,WeatherDisplay:10.37,2013-01-04 14:59:00,
2013-01-04 10:04:00,28.6,22.3,29.73,East,98,1.1,1.1,77,0.00,CLR,,0.00,290.0,WeatherDisplay:10.37,2013-01-04 15:04:00,
2013-01-04 10:09:00,28.5,22.2,29.72,NE,34,2.3,2.3,77,0.00,CLR,,0.00,299.0,WeatherDisplay:10.37,2013-01-04 15:09:00,
2013-01-04 10:14:00,28.4,22.1,29.72,SE,135,3.5,3.5,77,0.00,CLR,,0.00,316.0,WeatherDisplay:10.37,2013-01-04 15:14:00,
2013-01-04 10:19:00,28.7,22.4,29.72,South,187,1.1,1.1,77,0.00,CLR,,0.00,309.0,WeatherDisplay:10.37,2013-01-04 15:19:00,
2013-01-04 10:24:00,28.9,22.6,29.72,East,101,5.8,5.8,77,0.00,CLR,,0.00,313.0,WeatherDisplay:10.37,2013-01-04 15:24:00,
2013-01-04 10:29:00,29.2,22.6,29.72,NE,44,4.0,4.0,76,0.00,CLR,,0.00,315.0,WeatherDisplay:10.37,2013-01-04 15:29:00,
2013-01-04 10:34:00,30.1,22.8,29.72,ENE,76,3.5,3.5,74,0.00,CLR,,0.00,322.0,WeatherDisplay:10.37,2013-01-04 15:34:00,
2013-01-04 10:39:00,30.3,23.0,29.70,SSE,161,11.5,11.5,74,0.00,CLR,,0.00,327.0,WeatherDisplay:10.37,2013-01-04 15:39:00,
2013-01-04 10:44:00,30.7,23.1,29.70,South,180,4.6,4.6,73,0.00,CLR,,0.00,330.0,WeatherDisplay:10.37,2013-01-04 15:44:00,
2013-01-04 10:49:00,30.9,23.6,29.70,SW,225,3.5,3.5,74,0.00,CLR,,0.00,323.0,WeatherDisplay:10.37,2013-01-04 15:49:00,
2013-01-04 10:54:00,31.4,23.7,29.69,ENE,74,2.3,2.3,73,0.00,CLR,,0.00,279.0,WeatherDisplay:10.37,2013-01-04 15:54:00,
2013-01-04 10:59:00,31.6,23.9,29.69,SW,229,9.2,9.2,73,0.00,FEW,,0.00,281.0,WeatherDisplay:10.37,2013-01-04 15:59:00,
2013-01-04 11:04:00,31.5,23.8,29.69,WNW,299,4.6,4.6,73,0.00,CLR,,0.00,318.0,WeatherDisplay:10.37,2013-01-04 16:04:00,
2013-01-04 11:09:00,31.5,23.8,29.68,North,360,1.1,1.1,73,0.00,CLR,,0.00,338.0,WeatherDisplay:10.37,2013-01-04 16:09:00,
2013-01-04 11:14:00,31.6,23.9,29.68,NW,313,10.4,10.4,73,0.00,CLR,,0.00,230.0,WeatherDisplay:10.37,2013-01-04 16:14:00,
2013-01-04 11:19:00,31.5,23.8,29.68,WNW,292,3.5,3.5,73,0.00,FEW,,0.00,207.0,WeatherDisplay:10.37,2013-01-04 16:19:00,
2013-01-04 11:24:00,31.4,23.7,29.67,ESE,115,3.5,3.5,73,0.00,SCT,,0.00,246.0,WeatherDisplay:10.37,2013-01-04 16:24:00,
2013-01-04 11:29:00,31.4,23.7,29.67,West,281,3.5,3.5,73,0.00,SCT,,0.00,214.0,WeatherDisplay:10.37,2013-01-04 16:29:00,
2013-01-04 11:34:00,31.7,24.0,29.67,ENE,69,6.0,6.0,73,0.00,SCT,,0.00,207.0,WeatherDisplay:10.37,2013-01-04 16:34:00,
2013-01-04 11:39:00,31.7,24.0,29.66,SE,141,2.3,2.3,73,0.00,BKN,,0.00,188.0,WeatherDisplay:10.37,2013-01-04 16:39:00,
2013-01-04 11:44:00,31.4,23.7,29.66,North,9,3.5,3.5,73,0.00,BKN,,0.00,65.0,WeatherDisplay:10.37,2013-01-04 16:44:00,
2013-01-04 11:49:00,31.1,23.8,29.66,ESE,106,3.5,3.5,74,0.00,BKN,,0.00,83.0,WeatherDisplay:10.37,2013-01-04 16:49:00,
2013-01-04 11:54:00,31.5,23.8,29.64,East,80,3.5,3.5,73,0.00,BKN,,0.00,116.0,WeatherDisplay:10.37,2013-01-04 16:54:00,
2013-01-04 11:59:00,31.9,23.9,29.64,ESE,115,3.5,3.5,72,0.00,BKN,,0.00,134.0,WeatherDisplay:10.37,2013-01-04 16:59:00,
2013-01-04 12:04:00,32.2,24.5,29.64,ESE,119,5.8,5.8,73,0.00,BKN,,0.00,165.0,WeatherDisplay:10.37,2013-01-04 17:04:00,
2013-01-04 12:09:00,32.6,24.2,29.63,ESE,106,3.5,3.5,71,0.00,BKN,,0.00,165.0,WeatherDisplay:10.37,2013-01-04 17:09:00,
2013-01-04 12:14:00,33.0,24.6,29.63,NW,316,3.0,3.0,71,0.00,BKN,,0.00,169.0,WeatherDisplay:10.37,2013-01-04 17:14:00,
2013-01-04 12:19:00,33.3,24.2,29.63,SE,128,5.0,5.0,69,0.00,BKN,,0.00,132.0,WeatherDisplay:10.37,2013-01-04 17:19:00,
2013-01-04 12:24:00,33.3,24.2,29.62,NE,47,3.5,3.5,69,0.00,BKN,,0.00,134.0,WeatherDisplay:10.37,2013-01-04 17:24:00,
2013-01-04 12:29:00,33.5,24.4,29.62,NW,310,3.5,3.5,69,0.00,BKN,,0.00,167.0,WeatherDisplay:10.37,2013-01-04 17:29:00,
2013-01-04 12:34:00,33.7,24.3,29.62,NNW,344,3.5,3.5,68,0.00,SCT,,0.00,207.0,WeatherDisplay:10.37,2013-01-04 17:34:00,
2013-01-04 12:39:00,33.9,24.4,29.62,ENE,59,3.5,3.5,68,0.01,RA,,0.01,214.0,WeatherDisplay:10.37,2013-01-04 17:39:00,
2013-01-04 12:44:00,34.1,24.6,29.62,WNW,294,4.0,4.0,68,0.01,RA,,0.01,185.0,WeatherDisplay:10.37,2013-01-04 17:44:00,
2013-01-04 12:49:00,34.0,24.5,29.62,SSE,162,3.5,3.5,68,0.01,BKN,,0.01,156.0,WeatherDisplay:10.37,2013-01-04 17:49:00,
2013-01-04 12:55:00,33.9,24.4,29.62,ESE,111,4.6,4.6,68,0.01,BKN,,0.01,160.0,WeatherDisplay:10.37,2013-01-04 17:55:00,
2013-01-04 13:00:00,33.8,24.0,29.62,WSW,254,3.5,3.5,67,0.01,BKN,,0.01,158.0,WeatherDisplay:10.37,2013-01-04 18:00:00,
2013-01-04 13:05:00,33.8,25.0,29.62,WSW,258,2.0,9.0,70,0.00,SCT,,0.01,165.0,WeatherDisplay:10.37,2013-01-04 18:05:00,
2013-01-04 13:10:00,33.8,24.4,29.62,West,267,1.0,5.0,68,0.00,BKN,,0.01,118.0,WeatherDisplay:10.37,2013-01-04 18:10:00,
2013-01-04 13:15:00,33.8,24.4,29.62,North,5,3.5,3.5,68,0.01,SCT,,0.01,204.0,WeatherDisplay:10.37,2013-01-04 18:15:00,
2013-01-04 13:20:00,34.1,23.9,29.62,West,272,9.2,9.2,66,0.01,SCT,,0.01,160.0,WeatherDisplay:10.37,2013-01-04 18:20:00,
2013-01-04 13:25:00,34.3,24.1,29.62,West,280,2.3,2.3,66,0.01,BKN,,0.01,95.0,WeatherDisplay:10.37,2013-01-04 18:25:00,
2013-01-04 13:30:00,34.4,23.8,29.62,WNW,291,3.5,3.5,65,0.01,BKN,,0.01,77.0,WeatherDisplay:10.37,2013-01-04 18:30:00,
2013-01-04 13:35:00,34.4,23.8,29.62,ENE,74,2.3,2.3,65,0.01,BKN,,0.01,69.0,WeatherDisplay:10.37,2013-01-04 18:35:00,
2013-01-04 13:40:00,34.4,23.5,29.62,ENE,75,4.6,4.6,64,0.00,BKN,,0.01,77.0,WeatherDisplay:10.37,2013-01-04 18:40:00,
2013-01-04 13:45:00,34.4,23.5,29.62,West,270,4.6,4.6,64,0.00,BKN,,0.01,104.0,WeatherDisplay:10.37,2013-01-04 18:45:00,
2013-01-04 13:50:00,34.7,23.4,29.62,South,170,3.5,3.5,63,0.00,BKN,,0.01,109.0,WeatherDisplay:10.37,2013-01-04 18:50:00,
2013-01-04 13:55:00,34.9,23.2,29.62,WSW,240,3.5,3.5,62,0.00,BKN,,0.01,107.0,WeatherDisplay:10.37,2013-01-04 18:55:00,
2013-01-04 14:00:00,35.0,23.7,29.62,South,175,3.5,3.5,63,0.00,BKN,,0.01,107.0,WeatherDisplay:10.37,2013-01-04 19:00:00,
2013-01-04 14:05:00,34.8,23.5,29.62,East,88,2.3,2.3,63,0.00,BKN,,0.01,98.0,WeatherDisplay:10.37,2013-01-04 19:05:00,
2013-01-04 14:10:00,34.7,23.8,29.62,NE,56,4.0,4.0,64,0.00,BKN,,0.01,97.0,WeatherDisplay:10.37,2013-01-04 19:10:00,
2013-01-04 14:15:00,34.7,23.4,29.62,SW,233,6.9,6.9,63,0.00,BKN,,0.01,79.0,WeatherDisplay:10.37,2013-01-04 19:15:00,
2013-01-04 14:20:00,34.8,23.1,29.62,West,261,3.0,3.0,62,0.00,BKN,,0.01,69.0,WeatherDisplay:10.37,2013-01-04 19:20:00,
2013-01-04 14:25:00,35.0,23.3,29.62,WSW,239,4.6,4.6,62,0.00,BKN,,0.01,67.0,WeatherDisplay:10.37,2013-01-04 19:25:00,
2013-01-04 14:30:00,34.9,23.2,29.62,NE,54,1.1,1.1,62,0.00,BKN,,0.01,72.0,WeatherDisplay:10.37,2013-01-04 19:30:00,
2013-01-04 14:35:00,35.1,23.0,29.62,NW,318,1.1,1.1,61,0.00,BKN,,0.01,81.0,WeatherDisplay:10.37,2013-01-04 19:35:00,
2013-01-04 14:40:00,35.2,23.1,29.62,South,180,3.5,3.5,61,0.00,BKN,,0.01,53.0,WeatherDisplay:10.37,2013-01-04 19:40:00,
2013-01-04 14:45:00,35.1,23.4,29.62,NW,311,2.3,2.3,62,0.00,BKN,,0.01,46.0,WeatherDisplay:10.37,2013-01-04 19:45:00,
2013-01-04 14:50:00,35.1,22.6,29.62,NW,304,1.1,1.3,60,0.00,BKN,,0.01,70.0,WeatherDisplay:10.37,2013-01-04 19:50:00,
2013-01-04 14:55:00,34.8,23.9,29.62,NW,305,0.0,0.0,64,0.00,BKN,,0.01,65.0,WeatherDisplay:10.37,2013-01-04 19:55:00,
2013-01-04 15:00:00,34.5,22.8,29.62,WNW,303,2.0,2.0,62,0.00,BKN,,0.01,54.0,WeatherDisplay:10.37,2013-01-04 20:00:00,
2013-01-04 15:05:00,34.4,22.7,29.62,WNW,292,3.5,3.5,62,0.00,BKN,,0.01,54.0,WeatherDisplay:10.37,2013-01-04 20:05:00,
2013-01-04 15:10:00,34.4,23.1,29.62,WNW,292,1.1,1.1,63,0.00,BKN,,0.01,51.0,WeatherDisplay:10.37,2013-01-04 20:10:00,
2013-01-04 15:15:00,34.4,23.1,29.62,WNW,288,2.3,0.0,63,0.00,BKN,,0.01,42.0,WeatherDisplay:10.37,2013-01-04 20:15:00,
2013-01-04 15:20:00,34.3,23.4,29.62,WNW,288,2.3,2.3,64,0.00,BKN,,0.01,40.0,WeatherDisplay:10.37,2013-01-04 20:20:00,
2013-01-04 15:25:00,34.1,23.2,29.62,NW,321,2.3,2.3,64,0.00,BKN,,0.01,35.0,WeatherDisplay:10.37,2013-01-04 20:25:00,
2013-01-04 15:30:00,33.8,23.3,29.62,NW,321,1.1,1.1,65,0.00,BKN,,0.01,35.0,WeatherDisplay:10.37,2013-01-04 20:30:00,
2013-01-04 15:35:00,33.8,23.3,29.62,WSW,244,3.5,3.5,65,0.00,BKN,,0.01,33.0,WeatherDisplay:10.37,2013-01-04 20:35:00,
2013-01-04 15:40:00,33.6,23.4,29.62,ENE,71,1.1,1.1,66,0.00,BKN,,0.01,28.0,WeatherDisplay:10.37,2013-01-04 20:40:00,
2013-01-04 15:45:00,33.6,22.7,29.62,West,275,3.5,3.5,64,0.00,BKN,,0.01,19.0,WeatherDisplay:10.37,2013-01-04 20:45:00,
2013-01-04 15:50:00,33.5,22.6,29.62,West,265,3.5,3.5,64,0.00,BKN,,0.01,16.0,WeatherDisplay:10.37,2013-01-04 20:50:00,
2013-01-04 15:55:00,33.2,23.1,29.62,West,263,4.0,4.0,66,0.00,BKN,,0.01,12.0,WeatherDisplay:10.37,2013-01-04 20:55:00,
2013-01-04 16:00:00,33.0,22.9,29.62,WNW,302,2.3,2.3,66,0.00,BKN,,0.01,11.0,WeatherDisplay:10.37,2013-01-04 21:00:00,
2013-01-04 16:05:00,32.8,23.0,29.62,West,271,1.1,1.1,67,0.00,BKN,,0.01,9.0,WeatherDisplay:10.37,2013-01-04 21:05:00,
2013-01-04 16:10:00,32.6,23.2,29.62,NW,313,1.0,0.0,68,0.00,SCT,,0.01,7.0,WeatherDisplay:10.37,2013-01-04 21:10:00,
2013-01-04 16:15:00,32.5,23.1,29.62,NW,313,0.0,0.1,68,0.00,CLR,,0.01,5.0,WeatherDisplay:10.37,2013-01-04 21:15:00,
2013-01-04 16:20:00,32.3,22.9,29.62,NW,313,0.0,0.0,68,0.00,CLR,,0.01,0.0,WeatherDisplay:10.37,2013-01-04 21:20:00,
2013-01-04 16:25:00,32.4,23.0,29.62,West,274,1.1,1.1,68,0.00,CLR,,0.01,0.0,WeatherDisplay:10.37,2013-01-04 21:25:00,
2013-01-04 16:30:00,32.4,23.0,29.62,West,273,1.1,1.1,68,0.00,CLR,,0.01,0.0,WeatherDisplay:10.37,2013-01-04 21:30:00,
2013-01-04 16:35:00,32.5,23.1,29.62,SSW,199,3.5,3.5,68,0.00,CLR,,0.01,0.0,WeatherDisplay:10.37,2013-01-04 21:35:00,
2013-01-04 16:40:00,32.4,23.0,29.62,SW,219,2.3,2.3,68,0.00,CLR,,0.01,0.0,WeatherDisplay:10.37,2013-01-04 21:40:00,
2013-01-04 16:45:00,32.7,23.3,29.62,NW,307,2.3,2.3,68,0.00,CLR,,0.01,0.0,WeatherDisplay:10.37,2013-01-04 21:45:00,
2013-01-04 16:50:00,32.9,23.5,29.62,NW,307,0.0,0.0,68,0.00,CLR,,0.01,0.0,WeatherDisplay:10.37,2013-01-04 21:50:00,
2013-01-04 16:55:00,32.8,23.4,29.62,NW,307,2.3,2.3,68,0.00,CLR,,0.01,0.0,WeatherDisplay:10.37,2013-01-04 21:55:00,
2013-01-04 17:00:00,32.8,23.7,29.62,NW,307,2.3,2.3,69,0.00,CLR,,0.01,0.0,WeatherDisplay:10.37,2013-01-04 22:00:00,
2013-01-04 17:05:00,32.9,23.8,29.62,SSE,160,1.1,1.2,69,0.00,CLR,,0.01,0.0,WeatherDisplay:10.37,2013-01-04 22:05:00,
2013-01-04 17:10:00,33.0,23.9,29.62,NW,326,2.3,2.3,69,0.00,CLR,,0.01,0.0,WeatherDisplay:10.37,2013-01-04 22:10:00,
2013-01-04 17:15:00,33.0,23.9,29.62,NW,324,1.1,1.1,69,0.00,CLR,,0.01,0.0,WeatherDisplay:10.37,2013-01-04 22:15:00,
2013-01-04 17:20:00,33.2,24.1,29.62,NW,323,3.5,3.5,69,0.00,CLR,,0.01,0.0,WeatherDisplay:10.37,2013-01-04 22:20:00,
2013-01-04 17:25:00,33.4,24.3,29.62,North,355,2.3,2.3,69,0.00,CLR,,0.01,0.0,WeatherDisplay:10.37,2013-01-04 22:25:00,
2013-01-04 17:30:00,33.6,24.2,29.62,WNW,292,4.6,4.6,68,0.00,CLR,,0.01,0.0,WeatherDisplay:10.37,2013-01-04 22:30:00,
2013-01-04 17:35:00,33.7,24.3,29.62,West,272,3.5,3.5,68,0.00,CLR,,0.01,0.0,WeatherDisplay:10.37,2013-01-04 22:35:00,
2013-01-04 17:40:00,33.7,24.6,29.62,East,82,1.1,1.1,69,0.00,CLR,,0.01,0.0,WeatherDisplay:10.37,2013-01-04 22:40:00,
2013-01-04 17:45:00,33.7,24.6,29.62,West,261,2.3,0.0,69,0.00,CLR,,0.01,0.0,WeatherDisplay:10.37,2013-01-04 22:45:00,
2013-01-04 17:50:00,33.7,24.6,29.62,West,277,1.1,1.5,69,0.00,CLR,,0.01,0.0,WeatherDisplay:10.37,2013-01-04 22:50:00,
2013-01-04 17:55:00,33.7,24.6,29.62,SW,225,1.1,0.0,69,0.00,CLR,,0.01,0.0,WeatherDisplay:10.37,2013-01-04 22:55:00,
2013-01-04 18:00:00,33.7,24.6,29.62,South,169,4.6,4.6,69,0.00,CLR,,0.01,0.0,WeatherDisplay:10.37,2013-01-04 23:00:00,
2013-01-04 18:05:00,33.8,24.7,29.62,West,281,0.0,0.2,69,0.00,CLR,,0.01,0.0,WeatherDisplay:10.37,2013-01-04 23:05:00,
2013-01-04 18:10:00,33.8,24.7,29.62,WNW,282,0.0,0.3,69,0.00,CLR,,0.01,0.0,WeatherDisplay:10.37,2013-01-04 23:10:00,
2013-01-04 18:16:00,33.8,24.7,29.62,WSW,249,0.0,0.1,69,0.00,CLR,,0.01,0.0,WeatherDisplay:10.37,2013-01-04 23:16:00,
2013-01-04 18:21:00,33.7,24.6,29.62,WSW,250,2.3,2.3,69,0.00,CLR,,0.01,0.0,WeatherDisplay:10.37,2013-01-04 23:21:00,
2013-01-04 18:26:00,33.7,25.0,29.62,WNW,282,4.0,4.0,70,0.00,CLR,,0.01,0.0,WeatherDisplay:10.37,2013-01-04 23:26:00,
2013-01-04 18:31:00,33.9,24.8,29.62,West,271,3.5,3.5,69,0.00,CLR,,0.01,0.0,WeatherDisplay:10.37,2013-01-04 23:31:00,
2013-01-04 18:36:00,33.9,24.8,29.62,West,271,3.5,3.5,69,0.00,CLR,,0.01,0.0,WeatherDisplay:10.37,2013-01-04 23:36:00,
2013-01-04 18:41:00,33.9,25.1,29.62,WSW,253,6.9,6.9,70,0.00,CLR,,0.01,0.0,WeatherDisplay:10.37,2013-01-04 23:41:00,
2013-01-04 18:46:00,33.7,25.0,29.62,WSW,254,2.3,2.3,70,0.00,CLR,,0.01,0.0,WeatherDisplay:10.37,2013-01-04 23:46:00,
2013-01-04 18:51:00,33.6,24.9,29.62,WNW,285,2.3,2.3,70,0.00,CLR,,0.01,0.0,WeatherDisplay:10.37,2013-01-04 23:51:00,
2013-01-04 18:56:00,33.7,25.0,29.62,West,272,4.6,4.6,70,0.00,CLR,,0.01,0.0,WeatherDisplay:10.37,2013-01-04 23:56:00,
2013-01-04 19:01:00,33.8,25.0,29.62,West,263,1.1,1.1,70,0.00,CLR,,0.01,0.0,WeatherDisplay:10.37,2013-01-05 00:01:00,
2013-01-04 19:06:00,33.9,25.1,29.62,West,263,2.3,2.3,70,0.00,CLR,,0.01,0.0,WeatherDisplay:10.37,2013-01-05 00:06:00,
2013-01-04 19:11:00,33.9,25.5,29.62,SE,142,5.8,5.8,71,0.00,CLR,,0.01,0.0,WeatherDisplay:10.37,2013-01-05 00:11:00,
2013-01-04 19:16:00,33.8,25.4,29.62,ENE,60,1.1,1.1,71,0.00,CLR,,0.01,0.0,WeatherDisplay:10.37,2013-01-05 00:16:00,
2013-01-04 19:21:00,33.7,25.3,29.62,ESE,103,3.5,3.5,71,0.00,CLR,,0.01,0.0,WeatherDisplay:10.37,2013-01-05 00:21:00,
2013-01-04 19:26:00,33.9,25.5,29.62,ESE,102,0.0,0.0,71,0.00,CLR,,0.01,0.0,WeatherDisplay:10.37,2013-01-05 00:26:00,
2013-01-04 19:31:00,33.9,25.5,29.62,SSW,211,0.0,0.0,71,0.00,CLR,,0.01,0.0,WeatherDisplay:10.37,2013-01-05 00:31:00,
2013-01-04 19:36:00,34.0,25.6,29.63,WNW,296,2.3,2.3,71,0.00,CLR,,0.01,0.0,WeatherDisplay:10.37,2013-01-05 00:36:00,
2013-01-04 19:41:00,33.9,25.5,29.63,WNW,296,1.1,1.1,71,0.00,CLR,,0.01,0.0,WeatherDisplay:10.37,2013-01-05 00:41:00,
2013-01-04 19:46:00,33.6,25.5,29.63,WNW,296,1.1,1.1,72,0.00,CLR,,0.01,0.0,WeatherDisplay:10.37,2013-01-05 00:46:00,
2013-01-04 19:51:00,33.4,25.3,29.62,WNW,296,2.3,2.3,72,0.00,CLR,,0.01,0.0,WeatherDisplay:10.37,2013-01-05 00:51:00,
2013-01-04 19:56:00,33.4,25.3,29.62,NW,310,1.1,0.0,72,0.00,CLR,,0.01,0.0,WeatherDisplay:10.37,2013-01-05 00:56:00,
2013-01-04 20:01:00,33.3,25.2,29.62,NW,310,1.1,1.1,72,0.00,CLR,,0.01,0.0,WeatherDisplay:10.37,2013-01-05 01:01:00,
2013-01-04 20:06:00,33.1,25.4,29.62,West,263,3.5,3.5,73,0.00,CLR,,0.01,0.0,WeatherDisplay:10.37,2013-01-05 01:06:00,
2013-01-04 20:11:00,32.9,25.2,29.62,West,263,0.0,0.0,73,0.00,CLR,,0.01,0.0,WeatherDisplay:10.37,2013-01-05 01:11:00,
2013-01-04 20:16:00,32.8,25.1,29.62,ESE,116,1.1,0.0,73,0.00,CLR,,0.01,0.0,WeatherDisplay:10.37,2013-01-05 01:16:00,
2013-01-04 20:21:00,32.7,25.3,29.61,ESE,118,0.0,0.0,74,0.00,CLR,,0.01,0.0,WeatherDisplay:10.37,2013-01-05 01:21:00,
2013-01-04 20:26:00,32.9,25.5,29.61,ESE,118,0.0,0.1,74,0.00,CLR,,0.01,0.0,WeatherDisplay:10.37,2013-01-05 01:26:00,
2013-01-04 20:31:00,32.9,25.5,29.61,NW,325,3.5,3.5,74,0.00,CLR,,0.01,0.0,WeatherDisplay:10.37,2013-01-05 01:31:00,
2013-01-04 20:36:00,33.0,25.3,29.61,NW,304,1.1,0.0,73,0.00,CLR,,0.01,0.0,WeatherDisplay:10.37,2013-01-05 01:36:00,
2013-01-04 20:41:00,33.0,25.3,29.61,NW,304,0.0,0.0,73,0.00,CLR,,0.01,0.0,WeatherDisplay:10.37,2013-01-05 01:41:00,
2013-01-04 20:46:00,32.9,25.5,29.61,NW,304,0.0,0.0,74,0.00,CLR,,0.01,0.0,WeatherDisplay:10.37,2013-01-05 01:46:00,
2013-01-04 20:51:00,32.9,25.5,29.62,NW,304,1.1,1.1,74,0.00,CLR,,0.01,0.0,WeatherDisplay:10.37,2013-01-05 01:51:00,
2013-01-04 20:56:00,33.0,25.6,29.62,NNW,344,1.1,1.1,74,0.00,CLR,,0.01,0.0,WeatherDisplay:10.37,2013-01-05 01:56:00,
2013-01-04 21:01:00,32.8,25.4,29.62,NNW,341,1.1,1.1,74,0.00,CLR,,0.01,0.0,WeatherDisplay:10.37,2013-01-05 02:01:00,
2013-01-04 21:06:00,32.6,25.6,29.62,NNW,341,1.1,1.1,75,0.00,CLR,,0.01,0.0,WeatherDisplay:10.37,2013-01-05 02:06:00,
2013-01-04 21:11:00,32.6,25.6,29.62,NNW,331,2.0,2.0,75,0.00,CLR,,0.01,0.0,WeatherDisplay:10.37,2013-01-05 02:11:00,
2013-01-04 21:16:00,32.5,25.5,29.62,WNW,302,1.1,0.0,75,0.00,CLR,,0.01,0.0,WeatherDisplay:10.37,2013-01-05 02:16:00,
2013-01-04 21:21:00,32.4,25.4,29.63,WNW,302,1.1,1.1,75,0.00,CLR,,0.01,0.0,WeatherDisplay:10.37,2013-01-05 02:21:00,
2013-01-04 21:26:00,32.3,25.3,29.63,WNW,302,1.1,0.0,75,0.00,CLR,,0.01,0.0,WeatherDisplay:10.37,2013-01-05 02:26:00,
2013-01-04 21:31:00,32.2,25.5,29.63,WNW,302,1.1,0.0,76,0.00,CLR,,0.01,0.0,WeatherDisplay:10.37,2013-01-05 02:31:00,
2013-01-04 21:36:00,32.0,25.3,29.63,WNW,302,3.5,3.5,76,0.00,CLR,,0.01,0.0,WeatherDisplay:10.37,2013-01-05 02:36:00,
2013-01-04 21:41:00,31.8,25.4,29.63,WNW,302,0.0,0.2,77,0.00,CLR,,0.01,0.0,WeatherDisplay:10.37,2013-01-05 02:41:00,
2013-01-04 21:46:00,31.6,25.2,29.63,WNW,302,2.3,2.3,77,0.00,CLR,,0.01,0.0,WeatherDisplay:10.37,2013-01-05 02:46:00,
2013-01-04 21:51:00,31.5,25.1,29.63,WNW,302,1.1,1.1,77,0.00,CLR,,0.01,0.0,WeatherDisplay:10.37,2013-01-05 02:51:00,
2013-01-04 21:56:00,31.4,25.0,29.63,WNW,302,0.0,0.0,77,0.00,CLR,,0.01,0.0,WeatherDisplay:10.37,2013-01-05 02:56:00,
2013-01-04 22:01:00,31.4,25.3,29.63,WNW,302,2.3,0.0,78,0.00,CLR,,0.01,0.0,WeatherDisplay:10.37,2013-01-05 03:01:00,
2013-01-04 22:06:00,31.4,25.3,29.63,WNW,302,2.3,2.3,78,0.00,CLR,,0.01,0.0,WeatherDisplay:10.37,2013-01-05 03:06:00,
2013-01-04 22:11:00,31.4,25.3,29.63,WNW,302,2.0,2.0,78,0.00,CLR,,0.01,0.0,WeatherDisplay:10.37,2013-01-05 03:11:00,
2013-01-04 22:16:00,31.4,25.3,29.63,WNW,302,1.1,0.0,78,0.00,CLR,,0.01,0.0,WeatherDisplay:10.37,2013-01-05 03:16:00,
2013-01-04 22:21:00,31.4,25.3,29.63,WNW,302,1.1,0.0,78,0.00,CLR,,0.01,0.0,WeatherDisplay:10.37,2013-01-05 03:21:00,
2013-01-04 22:26:00,31.6,25.5,29.63,WNW,302,0.0,0.0,78,0.00,CLR,,0.01,0.0,WeatherDisplay:10.37,2013-01-05 03:26:00,
2013-01-04 22:31:00,31.7,25.6,29.63,WNW,302,1.1,1.1,78,0.00,CLR,,0.01,0.0,WeatherDisplay:10.37,2013-01-05 03:31:00,
2013-01-04 22:36:00,31.7,25.6,29.63,WNW,302,0.0,0.0,78,0.00,CLR,,0.01,0.0,WeatherDisplay:10.37,2013-01-05 03:36:00,
2013-01-04 22:41:00,31.8,25.7,29.63,WNW,302,3.5,3.5,78,0.00,CLR,,0.01,0.0,WeatherDisplay:10.37,2013-01-05 03:41:00,
2013-01-04 22:46:00,31.9,25.8,29.63,WNW,302,2.3,2.3,78,0.00,CLR,,0.01,0.0,WeatherDisplay:10.37,2013-01-05 03:46:00,
2013-01-04 22:51:00,31.8,25.7,29.63,WNW,302,1.1,0.0,78,0.00,CLR,,0.01,0.0,WeatherDisplay:10.37,2013-01-05 03:51:00,
2013-01-04 22:56:00,31.8,25.7,29.63,WNW,302,1.1,0.0,78,0.00,CLR,,0.01,0.0,WeatherDisplay:10.37,2013-01-05 03:56:00,
2013-01-04 23:01:00,31.8,25.7,29.63,WNW,302,2.3,2.3,78,0.00,CLR,,0.01,0.0,WeatherDisplay:10.37,2013-01-05 04:01:00,
2013-01-04 23:06:00,31.8,25.7,29.62,ENE,72,3.5,3.5,78,0.00,CLR,,0.01,0.0,WeatherDisplay:10.37,2013-01-05 04:06:00,
2013-01-04 23:11:00,32.0,25.9,29.62,ESE,106,3.5,3.5,78,0.00,CLR,,0.01,0.0,WeatherDisplay:10.37,2013-01-05 04:11:00,
2013-01-04 23:16:00,32.0,25.9,29.62,East,86,3.5,3.5,78,0.00,CLR,,0.01,0.0,WeatherDisplay:10.37,2013-01-05 04:16:00,
2013-01-04 23:21:00,32.0,25.9,29.62,East,86,0.0,0.0,78,0.00,CLR,,0.01,0.0,WeatherDisplay:10.37,2013-01-05 04:21:00,
2013-01-04 23:26:00,31.9,25.8,29.62,East,86,0.0,0.5,78,0.00,CLR,,0.01,0.0,WeatherDisplay:10.37,2013-01-05 04:26:00,
2013-01-04 23:31:00,31.7,25.6,29.62,East,86,1.1,1.1,78,0.00,CLR,,0.01,0.0,WeatherDisplay:10.37,2013-01-05 04:31:00,
2013-01-04 23:36:00,31.5,25.7,29.63,East,86,1.0,1.0,79,0.00,CLR,,0.01,0.0,WeatherDisplay:10.37,2013-01-05 04:36:00,
2013-01-04 23:41:00,31.4,25.3,29.63,East,86,2.3,2.3,78,0.00,CLR,,0.01,0.0,WeatherDisplay:10.37,2013-01-05 04:41:00,
2013-01-04 23:46:00,31.5,25.4,29.63,East,86,1.1,0.0,78,0.00,CLR,,0.01,0.0,WeatherDisplay:10.37,2013-01-05 04:46:00,
2013-01-04 23:51:00,31.5,25.4,29.62,East,86,0.0,0.0,78,0.00,CLR,,0.01,0.0,WeatherDisplay:10.37,2013-01-05 04:51:00,
2013-01-04 23:56:00,31.4,25.3,29.62,East,86,0.0,0.0,78,0.00,CLR,,0.01,0.0,WeatherDisplay:10.37,2013-01-05 04:56:00,